Weather History for Litchfield, MN

Change the Weather History Date:

Tuesday, August 5, 2014

  Actual Average Record
Temperature  
Mean Temperature 68 °F -  
Max Temperature 80 °F 83 °F 98 °F (1959)
Min Temperature 57 °F 59 °F 45 °F (1948)
Cooling Degree Days 4    
Growing Degree Days 18 (Base 50)    
Moisture  
Dew Point 59 °F    
Average Humidity 71    
Maximum Humidity 100    
Minimum Humidity 39    
Precipitation  
Precipitation 0.00 in - - ()
Sea Level Pressure  
Sea Level Pressure 30.12 in    
Wind  
Wind Speed 2 mph (NE)    
Max Wind Speed 10 mph    
Max Gust Speed -    
Visibility 10 miles    
Events      
Averages and records for this station are not official NWS values.
T = Trace of Precipitation, MM = Missing Value Source: NWS Daily Summary

Daily Weather History Graph

Daily Weather History Graph

Search for Another Location

Airport:

Trip Planner

Search our weather history database for the weather conditions in past years. The results will help you decide how hot, cold, wet, or windy it might be!

Date:

Astronomy

Aug. 05, 2014 Rise Set
Actual Time 6:07 AM CDT 8:39 PM CDT
Civil Twilight 5:34 AM CDT 9:12 PM CDT
Nautical Twilight 4:52 AM CDT 9:54 PM CDT
Astronomical Twilight 4:05 AM CDT 10:41 PM CDT
Moon 3:56 PM CDT (8/5) 12:56 AM CDT (8/5)
Length of Visible Light 15h 38m
Length of Day
14h 31m
Waxing Gibbous, 68% of the Moon is Illuminated
Aug 5
Waxing Gibbous
Aug 10
Full
Aug 17
Last Quarter
Aug 25
New
Sep 2
First Quarter

Hourly Weather History & Observations

Time (CDT) Temp. Heat Index Dew Point Humidity Pressure Visibility Wind Dir Wind Speed Gust Speed Precip Events Conditions
12:12 AM 64.4 °F - 57.2 °F 77% 30.11 in 10.0 mi Calm Calm - N/A   Clear
12:33 AM 62.6 °F - 57.2 °F 82% 30.11 in 10.0 mi NW 3.5 mph - N/A   Unknown
12:53 AM 64.4 °F - 57.2 °F 77% 30.11 in 10.0 mi Calm Calm - N/A   Unknown
1:13 AM 62.6 °F - 57.2 °F 82% 30.11 in 10.0 mi Calm Calm - N/A   Unknown
1:32 AM 62.6 °F - 57.2 °F 82% 30.10 in 10.0 mi Calm Calm - N/A   Unknown
1:53 AM 62.6 °F - 57.2 °F 82% 30.10 in 10.0 mi Calm Calm - N/A   Unknown
2:13 AM 62.6 °F - 57.2 °F 82% 30.10 in 10.0 mi Calm Calm - N/A   Unknown
2:32 AM 62.6 °F - 59.0 °F 88% 30.09 in 10.0 mi Calm Calm - N/A   Unknown
2:53 AM 60.8 °F - 57.2 °F 88% 30.10 in 10.0 mi Calm Calm - N/A   Clear
3:13 AM 60.8 °F - 57.2 °F 88% 30.10 in 10.0 mi NNE 3.5 mph - N/A   Clear
3:30 AM 60.8 °F - 59.0 °F 94% 30.10 in 10.0 mi NNE 3.5 mph - N/A   Clear
3:53 AM 60.8 °F - 59.0 °F 94% 30.10 in 10.0 mi NNE 3.5 mph - N/A   Clear
4:13 AM 60.8 °F - 59.0 °F 94% 30.10 in 10.0 mi Calm Calm - N/A   Clear
4:32 AM 60.8 °F - 59.0 °F 94% 30.10 in 10.0 mi Calm Calm - N/A   Clear
4:53 AM 60.8 °F - 59.0 °F 94% 30.11 in 10.0 mi Calm Calm - N/A   Unknown
5:13 AM 59.0 °F - 57.2 °F 94% 30.12 in 10.0 mi Calm Calm - N/A   Unknown
5:32 AM 57.2 °F - 57.2 °F 100% 30.11 in 10.0 mi Calm Calm - N/A   Clear
5:53 AM 60.8 °F - 59.0 °F 94% 30.11 in 10.0 mi NNE 3.5 mph - N/A   Scattered Clouds
6:12 AM 60.8 °F - 59.0 °F 94% 30.12 in 10.0 mi NNE 3.5 mph - N/A   Clear
6:33 AM 59.0 °F - 59.0 °F 100% 30.13 in 10.0 mi Calm Calm - N/A   Unknown
6:52 AM 59.0 °F - 59.0 °F 100% 30.14 in 7.0 mi North 3.5 mph - N/A   Unknown
7:12 AM 60.8 °F - 60.8 °F 100% 30.14 in 10.0 mi NNE 3.5 mph - N/A   Clear
7:33 AM 62.6 °F - 60.8 °F 94% 30.15 in 10.0 mi NNE 3.5 mph - N/A   Clear
7:52 AM 62.6 °F - 60.8 °F 94% 30.15 in 10.0 mi Calm Calm - N/A   Unknown
8:12 AM 62.6 °F - 60.8 °F 94% 30.15 in 10.0 mi Calm Calm - N/A   Clear
8:33 AM 64.4 °F - 62.6 °F 94% 30.15 in 10.0 mi Calm Calm - N/A   Unknown
8:52 AM 66.2 °F - 62.6 °F 88% 30.15 in 10.0 mi NNE 4.6 mph - N/A   Unknown
9:13 AM 68.0 °F - 62.6 °F 83% 30.15 in 10.0 mi ENE 4.6 mph - N/A   Clear
9:32 AM 69.8 °F - 62.6 °F 78% 30.15 in 10.0 mi NE 5.8 mph - N/A   Clear
9:53 AM 71.6 °F - 62.6 °F 73% 30.15 in 10.0 mi ENE 8.1 mph - N/A   Clear
10:13 AM 71.6 °F - 64.4 °F 78% 30.15 in 10.0 mi NE 5.8 mph - N/A   Clear
10:32 AM 73.4 °F - 62.6 °F 69% 30.15 in 10.0 mi ENE 6.9 mph - N/A   Clear
10:53 AM 75.2 °F - 60.8 °F 61% 30.16 in 10.0 mi ENE 9.2 mph - N/A   Clear
11:13 AM 75.2 °F - 60.8 °F 61% 30.15 in 10.0 mi ENE 6.9 mph - N/A   Clear
11:32 AM 75.2 °F - 59.0 °F 57% 30.15 in 10.0 mi East 10.4 mph - N/A   Clear
11:53 AM 75.2 °F - 59.0 °F 57% 30.15 in 10.0 mi NE 9.2 mph - N/A   Clear
12:13 PM 77.0 °F - 59.0 °F 54% 30.14 in 10.0 mi East 5.8 mph - N/A   Clear
12:32 PM 78.8 °F - 59.0 °F 51% 30.14 in 10.0 mi NE 8.1 mph - N/A   Clear
12:53 PM 78.8 °F - 57.2 °F 47% 30.13 in 10.0 mi NNE 8.1 mph - N/A   Clear
1:13 PM 75.2 °F - 55.4 °F 50% 30.14 in 10.0 mi NNE 9.2 mph - N/A   Clear
1:32 PM 77.0 °F - 55.4 °F 47% 30.14 in 10.0 mi NE 5.8 mph - N/A   Clear
1:53 PM 78.8 °F - 57.2 °F 47% 30.13 in 10.0 mi ENE 8.1 mph - N/A   Clear
2:17 PM 78.8 °F - 57.2 °F 47% 30.13 in 10.0 mi NE 8.1 mph - N/A   Scattered Clouds
2:33 PM 78.8 °F - 57.2 °F 47% 30.13 in 10.0 mi ENE 6.9 mph - N/A   Clear
2:53 PM 80.6 °F 80.8 °F 57.2 °F 45% 30.12 in 10.0 mi NE 6.9 mph - N/A   Clear
3:12 PM 80.6 °F 80.5 °F 55.4 °F 42% 30.12 in 10.0 mi ENE 5.8 mph - N/A   Clear
3:33 PM 80.6 °F 80.3 °F 53.6 °F 39% 30.12 in 10.0 mi NE 6.9 mph - N/A   Clear
3:53 PM 78.8 °F - 55.4 °F 44% 30.12 in 10.0 mi East 8.1 mph - N/A   Clear
4:12 PM 80.6 °F 80.5 °F 55.4 °F 42% 30.12 in 10.0 mi East 4.6 mph - N/A   Clear
4:33 PM 80.6 °F 80.3 °F 53.6 °F 39% 30.12 in 10.0 mi ENE 5.8 mph - N/A   Clear
4:53 PM 78.8 °F - 55.4 °F 44% 30.12 in 10.0 mi ENE 5.8 mph - N/A   Clear
5:33 PM 78.8 °F - 55.4 °F 44% 30.12 in 10.0 mi East 4.6 mph - N/A   Clear
5:53 PM 78.8 °F - 55.4 °F 44% 30.12 in 10.0 mi Calm Calm - N/A   Clear
6:12 PM 78.8 °F - 57.2 °F 47% 30.12 in 10.0 mi East 3.5 mph - N/A   Clear
6:33 PM 77.0 °F - 57.2 °F 50% 30.11 in 10.0 mi Calm Calm - N/A   Clear
6:53 PM 78.8 °F - 57.2 °F 47% 30.11 in 10.0 mi East 3.5 mph - N/A   Clear
7:12 PM 77.0 °F - 57.2 °F 50% 30.11 in 10.0 mi Calm Calm - N/A   Clear
7:33 PM 75.2 °F - 59.0 °F 57% 30.10 in 10.0 mi Calm Calm - N/A   Clear
7:53 PM 75.2 °F - 59.0 °F 57% 30.10 in 10.0 mi Calm Calm - N/A   Clear
8:12 PM 75.2 °F - 60.8 °F 61% 30.10 in 10.0 mi Calm Calm - N/A   Clear
8:33 PM 73.4 °F - 60.8 °F 65% 30.10 in 10.0 mi Calm Calm - N/A   Clear
8:53 PM 71.6 °F - 62.6 °F 73% 30.11 in 10.0 mi Calm Calm - N/A   Clear
9:12 PM 69.8 °F - 62.6 °F 78% 30.11 in 10.0 mi Calm Calm - N/A   Clear
9:52 PM 69.8 °F - 60.8 °F 73% 30.11 in 10.0 mi ENE 3.5 mph - N/A   Clear
10:12 PM 69.8 °F - 60.8 °F 73% 30.11 in 10.0 mi ENE 3.5 mph - N/A   Clear
10:33 PM 69.8 °F - 62.6 °F 78% 30.12 in 10.0 mi Calm Calm - N/A   Clear
10:52 PM 68.0 °F - 62.6 °F 83% 30.12 in 10.0 mi Calm Calm - N/A   Scattered Clouds
11:13 PM 68.0 °F - 62.6 °F 83% 30.12 in 10.0 mi Calm Calm - N/A   Clear
11:33 PM 68.0 °F - 62.6 °F 83% 30.11 in 10.0 mi Calm Calm - N/A   Unknown
11:52 PM 66.2 °F - 62.6 °F 88% 30.12 in 10.0 mi Calm Calm - N/A   Unknown